This demonstration page uses our WeatherBlox Daily Observations layout. Learn more.

38.89511, -77.03637

Hourly Observations for November 9, 2019

Temp ( °F °C ) Dew Point ( °F °C ) Humidity (%) Winds ( mph kmh ) Pressure ( in mb ) Visibility ( mi km ) Precip ( " mm )
12:52 am 00:52 Mostly Cloudy 34 1.1 19 -7.2 54 54 NW 10 17 30.36 1028 10 16.09344 0 0
1:52 am 01:52 Mostly Cloudy 33 0.6 20 -6.7 58 58 NNW 9 15 30.33 1027 10 16.09344 0 0
2:52 am 02:52 Mostly Cloudy 32 0 22 -5.6 66 66 NNW 5 7 30.36 1028 10 16.09344 0 0
3:52 am 03:52 Mostly Cloudy 31 -0.6 22 -5.6 69 69 NNW 5 7 30.36 1028 10 16.09344 0 0
4:52 am 04:52 Mostly Clear 32 0 23 -5 69 69 ENE 7 11 30.36 1028 10 16.09344 0 0
5:52 am 05:52 Clear 32 0 23 -5 69 69 ENE 7 11 30.36 1028 10 16.09344 0 0
6:52 am 06:52 Mostly Sunny 32 0 21 -6.1 64 64 ENE 5 7 30.36 1028 10 16.09344 0 0
7:52 am 07:52 Mostly Sunny 35 1.7 22 -5.6 59 59 Calm 30.36 1028 10 16.09344 0 0
8:52 am 08:52 Partly Cloudy 37 2.8 22 -5.6 54 54 ESE 6 9 30.36 1028 10 16.09344 0 0
9:52 am 09:52 Mostly Sunny 39 3.9 23 -5 53 53 SE 3 6 30.36 1028 10 16.09344 0 0
10:52 am 10:52 Mostly Sunny 42 5.6 23 -5 47 47 S 8 13 30.33 1027 10 16.09344 0 0
11:52 am 11:52 Partly Cloudy 43 6.1 22 -5.6 43 43 S 8 13 30.3 1026 10 16.09344 0 0
12:52 pm 12:52 Mostly Cloudy 45 7.2 23 -5 42 42 S 13 20 30.27 1025 10 16.09344 0 0
1:52 pm 13:52 Mostly Cloudy 44 6.7 21 -6.1 40 40 SW 9 15 30.24 1024 10 16.09344 0 0
2:52 pm 14:52 Mostly Cloudy 45 7.2 24 -4.4 44 44 S 8 13 30.21 1023 10 16.09344 0 0
3:52 pm 15:52 Mostly Cloudy 45 7.2 24 -4.4 44 44 S 9 15 30.21 1023 10 16.09344 0 0
4:52 pm 16:52 Mostly Cloudy 43 6.1 24 -4.4 47 47 SSE 10 17 30.18 1022 10 16.09344 0 0
5:52 pm 17:52 Mostly Cloudy 41 5 26 -3.3 55 55 SSE 5 7 30.18 1022 10 16.09344 0 0
6:52 pm 18:52 Mostly Cloudy 41 5 26 -3.3 55 55 SSE 7 11 30.18 1022 10 16.09344 0 0
7:52 pm 19:52 Partly Cloudy 40 4.4 27 -2.8 60 60 SSE 7 11 30.18 1022 10 16.09344 0 0
8:52 pm 20:52 Mostly Cloudy 38 3.3 27 -2.8 65 65 SSW 5 7 30.18 1022 10 16.09344 0 0
9:52 pm 21:52 Partly Cloudy 39 3.9 27 -2.8 62 62 SSE 8 13 30.18 1022 10 16.09344 0 0
10:52 pm 22:52 Mostly Cloudy 39 3.9 30 -1.1 70 70 S 6 9 30.18 1022 10 16.09344 0 0
11:52 pm 23:52 Mostly Cloudy 37 2.8 30 -1.1 76 76 SSW 5 7 30.15 1021 10 16.09344 0 0

Powered by AerisWeather